Dayton, OH

11:59 AM EDT on March 28, 2017 (GMT -0400)
Cox-Dayton International

Weather History for KDAY - December, 2013

Change the Weather History Date:

Friday, December 27, 2013

  Actual Average Record
Temperature  
Mean Temperature 39 °F 28 °F  
Max Temperature 46 °F 35 °F 66 °F (2008)
Min Temperature 31 °F 22 °F -4 °F (1950)
Degree Days  
Heating Degree Days 26 37  
Month to date heating degree days 868 900  
Since 1 July heating degree days 1992 2011  
Cooling Degree Days 0 0  
Month to date cooling degree days 0 0  
Year to date cooling degree days 1062 891  
Moisture  
Dew Point 26 °F    
Average Humidity 61    
Maximum Humidity 72    
Minimum Humidity 49    
Precipitation  
Precipitation 0.00 in 0.10 in 1.48 in (1982)
Month to date precipitation 4.42 2.72  
Year to date precipitation 36.37 40.65  
Snow  
Snow 0.00 in 0.20 in 4.90 in (1939)
Month to date snowfall 12.5 3.7  
Since 1 July snowfall 14.5 4.7  
Snow Depth 0.00 in    
Sea Level Pressure  
Sea Level Pressure 30.34 in    
Wind  
Wind Speed 11 mph (SW)    
Max Wind Speed 18 mph    
Max Gust Speed 25 mph    
Visibility 10 miles    
Events      
T = Trace of Precipitation, MM = Missing Value Source: NWS Daily Summary

Daily Weather History Graph

Daily Weather History Graph

Search for Another Location

Airport or City:

Trip Planner

Search our weather history database for the weather conditions in past years. The results will help you decide how hot, cold, wet, or windy it might be!

Date:

Astronomy

Dec. 27, 2013 Rise Set
Actual Time 7:57 AM EST 5:18 PM EST
Civil Twilight 7:26 AM EST 5:49 PM EST
Nautical Twilight 6:52 AM EST 6:23 PM EST
Astronomical Twilight 6:20 AM EST 6:56 PM EST
Moon 2:28 AM EST (12/27) 1:28 PM EST (12/27)
Length of Visible Light 10h 22m
Length of Day
9h 21m
Waning Crescent, 28% of the Moon is Illuminated
Dec 27
Waning Crescent
Jan 1
New
Jan 7
First Quarter
Jan 15
Full
Jan 24
Last Quarter

Hourly Weather History & Observations

Time (EST) Temp. Windchill Dew Point Humidity Pressure Visibility Wind Dir Wind Speed Gust Speed Precip Events Conditions
12:56 AM 33.1 °F 23.9 °F 23.0 °F 66% 30.33 in 10.0 mi SSW 12.7 mph - N/A   Partly Cloudy
1:56 AM 34.0 °F 24.2 °F 24.1 °F 67% 30.34 in 10.0 mi SW 15.0 mph - N/A   Overcast
2:56 AM 34.0 °F 24.6 °F 24.1 °F 67% 30.34 in 10.0 mi SW 13.8 mph - N/A   Overcast
3:56 AM 34.0 °F 25.0 °F 24.1 °F 67% 30.34 in 10.0 mi SW 12.7 mph - N/A   Overcast
4:56 AM 34.0 °F 25.0 °F 24.1 °F 67% 30.33 in 10.0 mi SW 12.7 mph - N/A   Overcast
5:56 AM 33.1 °F 24.4 °F 23.0 °F 66% 30.33 in 10.0 mi SW 11.5 mph - N/A   Mostly Cloudy
6:56 AM 32.0 °F 23.6 °F 23.0 °F 69% 30.35 in 10.0 mi SW 10.4 mph - N/A   Partly Cloudy
7:56 AM 30.9 °F 22.8 °F 23.0 °F 72% 30.36 in 10.0 mi SSW 9.2 mph - N/A   Partly Cloudy
8:56 AM 32.0 °F 24.8 °F 23.0 °F 69% 30.38 in 10.0 mi SSW 8.1 mph - N/A   Scattered Clouds
9:56 AM 36.0 °F 30.3 °F 24.1 °F 62% 30.41 in 10.0 mi WSW 6.9 mph - N/A   Partly Cloudy
10:56 AM 39.0 °F 32.3 °F 25.0 °F 57% 30.41 in 10.0 mi WSW 10.4 mph - N/A   Partly Cloudy
11:56 AM 41.0 °F 36.4 °F 27.0 °F 57% 30.39 in 10.0 mi SW 6.9 mph - N/A   Partly Cloudy
12:56 PM 43.0 °F 37.2 °F 28.0 °F 56% 30.36 in 10.0 mi SSW 10.4 mph - N/A   Partly Cloudy
1:56 PM 45.0 °F 39.3 °F 28.0 °F 52% 30.34 in 10.0 mi SW 11.5 mph - N/A   Partly Cloudy
2:56 PM 46.0 °F 39.9 °F 28.9 °F 51% 30.32 in 10.0 mi SW 13.8 mph - N/A   Partly Cloudy
3:56 PM 46.0 °F 41.4 °F 28.9 °F 51% 30.31 in 10.0 mi SSW 9.2 mph - N/A   Partly Cloudy
4:56 PM 44.1 °F 39.0 °F 28.9 °F 55% 30.31 in 10.0 mi SSW 9.2 mph - N/A   Clear
5:56 PM 41.0 °F 36.4 °F 28.0 °F 60% 30.32 in 10.0 mi South 6.9 mph - N/A   Clear
6:56 PM 39.9 °F 33.9 °F 28.0 °F 63% 30.31 in 10.0 mi SSW 9.2 mph - N/A   Clear
7:56 PM 39.0 °F 34.0 °F 28.0 °F 65% 30.31 in 10.0 mi SSW 6.9 mph - N/A   Clear
8:56 PM 39.0 °F 32.3 °F 28.0 °F 65% 30.31 in 10.0 mi SSW 10.4 mph - N/A   Clear
9:56 PM 39.0 °F 31.4 °F 28.0 °F 65% 30.30 in 10.0 mi SSW 12.7 mph - N/A   Clear
10:56 PM 39.0 °F 31.4 °F 28.0 °F 65% 30.30 in 10.0 mi SW 12.7 mph - N/A   Clear
11:56 PM 37.9 °F 30.5 °F 28.0 °F 68% 30.27 in 10.0 mi SSW 11.5 mph - N/A   Clear